This is the latest recevied weather packets stored in our database for station/object N5JXS. If no packets are shown the sender has not sent any weather packets the latest 10 day(s).
| Time | Temp. | Humidity | Pressure | Rain* | Wind** | Luminosity | Snow |
|---|---|---|---|---|---|---|---|
| 1788283593 | 22.78° C | 40% | 1028 hPa | 0 mm | - | 612 W/m² | - |
| 1788283269 | 22.78° C | 39% | 1027.8 hPa | 0 mm | - | 644 W/m² | - |
| 1788282968 | 22.22° C | 41% | 1028 hPa | 0 mm | - | 643 W/m² | - |
| 1788282663 | 21.67° C | 44% | 1027.7 hPa | 0 mm | - | 636 W/m² | - |
| 1788282361 | 21.11° C | 44% | 1027.7 hPa | 0 mm | - | 624 W/m² | - |
| 1788282056 | 21.11° C | 45% | 1028 hPa | 0 mm | - | 482 W/m² | - |
| 1788281750 | 21.11° C | 47% | 1028.1 hPa | 0 mm | - | 407 W/m² | - |
| 1788281446 | 20° C | 48% | 1028.1 hPa | 0 mm | - | 631 W/m² | - |
| 1788281141 | 20° C | 50% | 1028.1 hPa | 0 mm | - | 147 W/m² | - |
| 1788280836 | 19.44° C | 50% | 1028.1 hPa | 0 mm | - | 133 W/m² | - |
| 1788280532 | 19.44° C | 51% | 1028 hPa | 0 mm | - | 170 W/m² | - |
| 1788280230 | 19.44° C | 51% | 1028.1 hPa | 0 mm | - | 166 W/m² | - |
| 1788279926 | 18.89° C | 53% | 1027.8 hPa | 0 mm | - | 187 W/m² | - |
| 1788279625 | 18.89° C | 55% | 1027.8 hPa | 0 mm | - | 193 W/m² | - |
| 1788279324 | 18.33° C | 55% | 1028.1 hPa | 0 mm | - | 174 W/m² | - |
| 1788279024 | 18.33° C | 56% | 1027.8 hPa | 0 mm | - | 164 W/m² | - |
| 1788278720 | 17.78° C | 56% | 1027.7 hPa | 0 mm | - | 151 W/m² | - |
| 1788278415 | 17.78° C | 57% | 1027.8 hPa | 0 mm | - | 140 W/m² | - |
| 1788278114 | 17.78° C | 57% | 1027.8 hPa | 0 mm | - | 134 W/m² | - |
| 1788277810 | 17.78° C | 58% | 1028 hPa | 0 mm | - | 113 W/m² | - |
| 1788277509 | 17.22° C | 58% | 1027.8 hPa | 0 mm | - | 117 W/m² | - |
| 1788277205 | 17.22° C | 60% | 1027.8 hPa | 0 mm | - | 108 W/m² | - |
| 1788276899 | 17.22° C | 60% | 1028 hPa | 0 mm | - | 86 W/m² | - |
| 1788276598 | 16.67° C | 62% | 1027.7 hPa | 0 mm | - | 76 W/m² | - |
| 1788276293 | 16.67° C | 65% | 1027.8 hPa | 0 mm | - | 64 W/m² | - |
* Rain latest hour (hover to see other rain measurements)
** Current wind speed in m/s (hover to see current wind gust speed)